Theta_e
292 291 291 289 288 288 288 288 289 289 289 289 289 289 288 288 288 288 288 287 287 287 287 287 287 287 286 287 287 287 286 286 285 285 285 285 285 284 284 283 283 283 282 282 282 282 281 281 281 281 280 280 280 280 279 279 279 278 277 277 277 276 276 275 274 275 277 277 276 275 275 275 274 274 273 273 273 273 273 273 273 273 273 274 274
291 291 290 289 288 288 288 288 288 288 289 289 289 288 288 288 288 288 288 287 287 287 287 287 286 286 286 286 286 286 286 285 285 285 285 284 284 284 283 283 283 282 282 282 282 281 281 281 281 281 280 280 280 279 279 278 278 278 277 276 276 276 275 275 274 273 275 276 275 275 274 274 274 273 273 273 273 273 273 273 273 273 274 274 274
292 291 290 289 288 288 288 288 288 288 288 288 288 288 287 287 287 287 287 287 286 286 286 286 286 286 286 286 286 286 285 285 285 284 284 284 284 283 283 283 282 282 282 282 281 281 281 281 281 280 280 280 279 279 279 278 277 277 277 276 276 276 275 274 274 273 273 275 275 274 273 273 273 273 273 273 273 273 273 273 273 274 274 274 274
292 291 290 289 288 287 287 288 288 288 288 288 288 287 287 287 287 287 287 286 286 286 285 286 286 286 286 286 286 286 286 286 285 284 283 284 284 283 283 282 282 282 282 281 281 281 281 281 280 280 280 279 279 278 278 277 277 277 276 276 275 275 275 274 274 273 273 273 274 273 273 273 273 273 273 273 273 273 273 273 274 274 274 274 274
292 290 290 289 288 287 287 287 287 287 288 288 287 287 287 287 286 286 286 286 285 285 285 285 285 285 285 286 286 286 286 286 285 284 284 283 283 283 283 282 282 282 282 281 281 281 280 280 280 280 280 279 279 278 278 277 277 276 276 275 275 274 274 274 273 273 273 273 273 273 273 273 273 273 273 273 273 274 274 274 274 274 274 274 274
291 290 289 288 288 287 287 287 287 287 287 287 287 287 286 286 286 286 286 286 285 285 285 285 285 285 285 286 286 286 286 285 285 285 284 284 284 284 283 283 283 282 282 281 281 280 280 280 280 280 279 279 278 278 277 277 276 276 275 275 274 274 274 274 273 273 273 273 273 273 273 273 273 273 273 274 274 274 274 274 274 274 274 274 274
290 289 289 288 288 287 287 287 287 287 287 287 287 287 286 286 286 286 285 285 285 285 285 285 285 285 285 285 285 285 285 285 285 285 285 284 284 284 284 284 283 283 282 281 281 280 280 280 279 279 279 278 278 277 277 276 276 275 275 274 274 274 273 273 273 273 273 273 273 273 273 273 273 274 274 274 274 274 275 275 275 274 274 274 275
289 289 288 288 287 287 287 287 287 287 287 287 287 286 286 286 286 286 285 285 285 286 285 285 285 285 285 285 285 285 285 285 285 285 285 285 285 285 284 284 284 283 282 281 280 280 280 279 279 279 278 278 277 277 276 276 275 275 274 274 274 274 273 273 273 273 273 273 273 273 273 274 274 274 274 275 275 275 275 274 274 274 274 274 274
289 288 288 288 287 287 287 286 287 286 286 286 286 286 286 286 286 285 285 285 285 285 285 285 285 285 285 284 284 284 284 284 284 285 285 285 285 285 284 284 284 283 281 280 280 279 279 279 278 278 278 277 277 276 276 275 275 274 274 274 273 273 273 273 272 273 273 273 273 274 274 274 275 275 275 275 275 274 274 274 274 274 274 273 273
289 288 288 287 287 286 286 286 286 286 286 286 286 286 286 286 286 285 285 285 285 285 285 285 285 285 284 284 284 284 284 284 285 285 285 285 285 285 284 284 283 282 281 280 279 279 278 278 278 278 277 277 277 276 275 275 274 274 274 273 273 273 273 273 273 274 274 274 274 274 275 275 275 275 275 274 274 274 273 273 273 273 272 272 272
288 288 288 287 287 286 286 286 286 286 286 285 285 285 286 286 285 285 285 284 284 284 284 284 284 284 284 284 284 285 285 285 284 284 285 285 285 285 284 283 283 282 281 280 279 279 278 278 278 277 277 277 276 276 275 275 274 274 273 273 273 273 273 274 274 274 275 274 275 275 275 275 275 274 274 273 273 273 273 272 272 272 271 271 271
288 288 288 287 287 286 286 286 286 285 285 285 284 285 285 285 285 285 284 284 284 284 284 284 284 284 284 284 285 285 285 284 284 284 285 285 285 284 284 283 282 281 280 279 279 279 278 278 277 277 277 277 276 276 275 275 274 273 273 273 273 274 274 275 275 275 275 275 275 275 275 274 273 273 273 273 272 272 271 271 271 271 270 270 271
288 287 287 287 286 286 286 285 285 285 284 284 284 284 285 285 285 284 284 284 284 284 284 284 284 284 284 285 285 285 285 284 284 284 285 285 285 284 283 283 282 281 280 279 279 279 279 278 278 277 277 277 276 276 275 274 274 273 273 273 273 274 275 275 275 275 275 275 274 274 273 273 273 272 272 272 271 271 270 270 270 270 270 270 270
288 287 287 286 286 286 285 285 284 284 283 283 283 284 284 285 284 284 284 284 284 284 284 284 284 284 284 285 285 285 285 284 284 284 285 285 284 284 284 283 282 281 280 280 279 279 278 278 277 277 277 276 276 275 275 274 273 273 273 274 274 275 274 274 275 275 275 274 273 273 273 272 272 272 271 271 270 270 269 269 269 269 269 268 268
287 287 286 286 286 285 285 284 284 283 283 283 283 284 284 284 284 284 284 284 284 284 285 285 285 285 285 285 284 285 285 284 284 284 285 284 284 284 284 283 282 282 281 280 280 278 278 277 277 276 276 276 275 275 274 274 273 273 274 274 275 275 274 274 274 274 274 273 272 272 272 272 271 271 270 270 269 269 269 269 268 268 267 267 267
287 287 286 286 285 285 284 284 283 283 283 282 283 283 284 284 284 284 284 284 284 285 285 285 285 285 285 284 284 285 285 285 284 284 284 284 282 282 283 283 282 282 282 281 280 278 277 277 276 276 276 275 275 275 274 274 273 274 274 275 275 275 274 274 274 273 273 272 272 272 271 271 271 270 270 269 269 269 268 268 267 266 266 266 266
287 287 286 286 285 285 284 284 283 283 282 282 282 283 284 284 284 284 284 284 284 285 286 285 285 285 285 285 285 285 285 285 284 284 284 283 281 281 282 282 281 282 281 280 279 278 277 276 276 275 275 275 275 275 274 274 274 274 275 275 275 274 274 274 273 272 272 271 271 271 271 270 270 269 269 269 268 268 267 267 266 266 266 266 266
287 287 287 286 286 285 284 284 283 283 282 282 283 283 283 284 284 284 284 284 286 287 286 285 285 285 285 285 285 285 285 285 285 284 284 282 281 280 281 281 280 281 281 280 279 278 277 276 275 275 275 275 275 274 274 274 274 275 275 275 274 274 274 273 272 272 271 271 271 271 270 270 269 269 269 268 268 267 266 266 266 266 266 266 266
288 288 287 287 286 285 285 284 284 283 283 283 283 283 283 284 284 284 284 285 287 286 285 284 284 284 284 284 284 284 285 285 284 284 284 282 281 280 280 280 280 280 280 280 278 277 277 276 275 275 275 274 274 274 274 274 275 275 275 275 274 274 273 272 272 271 271 271 271 270 270 269 269 269 269 268 268 267 266 266 265 265 265 266 266
288 288 287 287 287 286 285 285 284 284 284 283 283 283 283 283 284 284 284 285 285 284 283 283 284 284 284 284 283 283 284 284 284 283 283 283 281 280 280 280 280 280 280 279 278 278 276 275 275 274 274 274 274 274 274 275 275 275 275 275 274 273 272 272 271 271 271 271 270 269 269 269 269 268 268 268 268 267 266 266 265 265 265 265 265
288 288 288 287 287 286 286 285 285 284 284 284 283 283 283 283 283 283 283 283 282 281 282 282 283 283 283 283 283 283 283 283 283 282 283 282 281 279 280 280 281 280 279 278 278 277 276 275 275 274 274 273 273 274 275 275 276 275 275 274 273 273 272 272 271 271 270 270 269 269 269 269 268 268 268 268 268 267 266 266 265 265 265 265 265
289 289 288 288 287 287 286 285 285 284 284 283 283 282 282 282 282 281 281 281 280 280 281 281 282 282 282 282 282 282 282 282 281 281 282 282 281 279 279 280 280 279 278 277 278 278 277 276 275 274 274 273 273 274 274 275 276 275 275 274 273 273 272 272 271 270 270 269 269 269 269 268 268 269 268 268 268 267 266 266 266 265 265 265 265
289 289 288 288 287 287 286 285 285 284 284 283 283 282 282 281 281 280 280 280 279 279 280 280 280 280 281 281 281 282 282 281 280 280 280 281 281 279 278 279 279 278 278 278 278 278 277 275 274 274 273 273 273 274 275 275 276 275 274 273 273 272 271 271 270 269 269 269 268 269 269 268 268 268 268 268 267 267 266 266 266 266 265 265 265
289 289 288 288 287 286 286 286 285 285 284 283 283 282 281 281 280 280 280 279 279 279 279 279 279 279 279 280 281 281 281 281 281 280 280 280 280 278 277 278 278 277 277 277 278 277 276 274 274 273 273 273 273 274 275 275 275 275 274 272 272 271 270 270 269 269 268 268 268 268 268 268 268 267 267 267 267 267 266 266 266 266 266 265 265
289 288 288 288 287 287 286 286 285 285 284 283 283 282 281 281 280 280 280 279 279 279 278 278 278 278 278 279 280 281 281 281 281 281 280 279 279 278 277 277 277 277 276 277 277 276 275 274 273 273 273 273 274 275 275 275 275 274 273 272 271 270 269 269 268 268 268 268 268 268 268 268 267 267 267 266 266 266 266 266 266 266 266 266 267
288 288 288 288 287 287 286 285 285 284 284 283 283 283 282 281 281 280 280 279 279 279 278 278 277 277 278 278 279 280 280 281 281 281 280 279 278 278 277 277 277 276 276 276 276 275 274 273 273 273 273 274 274 274 274 274 274 274 273 271 271 270 269 268 268 268 268 268 268 268 268 267 267 267 266 266 266 266 266 266 266 266 265 265 266
288 287 287 287 287 286 286 285 285 284 283 283 283 282 282 281 281 280 280 279 278 278 277 277 277 277 277 278 278 278 279 280 280 280 279 278 278 278 278 277 276 276 276 276 275 275 274 274 274 274 274 274 274 274 274 273 273 273 272 271 270 269 268 268 267 268 268 268 268 267 267 267 266 266 266 266 266 266 265 265 265 265 265 265 265
288 287 287 287 287 286 286 285 285 284 284 283 282 282 282 281 281 281 281 281 280 279 278 278 278 278 278 278 277 277 277 278 279 280 280 280 280 279 278 277 276 275 275 275 275 275 275 274 274 274 273 273 273 273 273 273 272 272 271 271 270 269 268 267 267 268 268 267 267 267 267 266 266 266 266 266 266 266 265 265 265 265 265 264 264
287 287 287 287 286 286 285 285 285 284 284 283 283 283 283 282 282 283 283 283 282 282 281 281 281 281 280 279 278 277 277 279 281 281 281 281 280 280 279 279 278 276 276 275 275 274 275 274 274 273 273 272 272 272 272 272 271 271 271 270 269 268 267 267 267 267 267 266 266 266 266 266 266 266 266 266 266 266 265 265 264 264 264 264 264
287 287 287 286 286 286 285 285 285 284 284 284 283 283 282 282 282 282 282 282 282 281 281 281 281 281 280 280 279 278 279 280 280 280 279 279 279 279 279 279 278 277 276 275 274 274 274 273 273 272 272 271 271 271 271 271 271 271 270 270 269 268 267 267 267 267 266 266 266 265 265 265 266 266 266 266 266 266 265 265 264 264 264 264 264
288 287 287 287 287 286 286 285 285 284 284 283 283 282 282 281 281 281 281 281 280 280 280 280 279 278 278 279 279 278 278 278 278 277 278 278 278 278 277 277 277 276 275 274 274 274 273 272 272 271 271 271 271 271 271 271 271 270 270 270 269 268 267 267 267 266 266 265 265 265 265 265 265 265 265 265 265 266 265 265 264 264 264 264 263
289 288 288 288 287 286 286 285 284 284 283 282 282 281 281 280 280 281 281 280 279 279 278 278 278 277 277 277 277 277 277 277 276 276 276 277 277 277 277 276 276 275 274 273 273 273 272 272 271 271 271 271 271 272 272 271 271 270 270 270 269 268 267 267 266 266 265 265 265 265 265 265 264 265 265 265 265 265 265 265 264 264 264 264 263
288 288 288 287 286 285 285 284 284 284 283 282 282 280 280 279 279 279 279 278 277 277 277 277 277 276 276 276 276 276 276 276 276 276 276 276 276 276 276 275 275 274 274 273 273 272 272 272 271 271 271 272 272 272 272 271 271 270 270 269 269 268 268 267 266 265 265 265 265 265 265 265 264 264 264 264 264 264 264 265 264 264 264 263 263
287 287 287 287 286 286 285 285 284 284 283 282 281 280 279 279 278 277 276 277 277 277 277 277 276 276 276 276 276 276 276 276 276 275 275 275 275 275 275 275 275 275 274 274 273 273 272 272 272 272 272 272 272 272 272 271 271 270 270 269 269 268 267 266 266 265 265 265 264 264 264 264 264 263 264 264 263 263 264 264 264 264 263 263 263
287 287 286 286 286 285 285 285 284 283 282 282 281 280 279 278 277 276 276 276 276 276 277 277 277 276 276 276 276 276 276 276 275 275 275 275 275 276 276 275 275 275 275 274 274 273 273 273 273 272 272 272 272 272 272 271 271 270 269 269 268 267 266 266 265 265 265 264 264 264 264 264 264 263 263 263 263 263 263 263 263 263 263 263 262
286 286 285 285 284 284 283 283 282 282 281 281 280 279 278 278 277 276 276 275 275 275 276 276 275 275 275 275 275 276 276 276 275 275 275 275 276 276 276 275 275 275 275 275 275 274 274 274 273 273 273 272 272 272 272 271 270 270 269 268 267 267 266 265 265 265 265 264 264 264 264 264 264 263 262 262 262 262 262 262 262 262 262 262 262
285 284 284 284 283 282 282 281 281 280 280 279 278 278 277 277 276 276 275 274 274 274 274 274 274 273 274 274 275 275 276 276 276 275 275 275 276 276 276 275 275 275 275 275 275 275 274 274 273 273 273 272 272 272 271 270 270 269 268 268 267 266 265 265 265 265 264 264 264 264 264 264 264 263 262 262 262 262 262 262 262 262 262 261 261
284 283 283 283 282 282 281 281 280 280 279 278 278 277 276 276 275 274 274 274 273 273 273 272 272 272 272 273 274 275 275 276 276 276 275 275 276 275 275 275 275 275 274 274 274 274 274 274 273 272 272 272 271 271 270 270 269 269 268 267 266 265 265 264 264 264 264 264 264 264 264 264 263 263 262 262 262 262 262 262 261 261 261 261 261
283 282 282 282 281 281 281 280 279 279 278 277 277 276 275 275 274 273 273 273 272 272 272 271 271 271 272 272 273 273 274 275 275 276 275 275 275 275 275 275 275 274 274 273 273 273 273 273 272 272 271 271 270 270 269 269 268 268 267 266 266 265 264 264 264 264 264 264 264 264 264 263 263 263 262 261 261 262 262 261 261 260 260 261 261
282 282 281 281 281 280 280 279 278 278 277 277 276 275 275 274 274 273 273 272 272 271 271 271 271 271 272 271 271 272 273 274 274 275 275 275 275 275 275 275 275 274 274 273 273 273 272 272 271 271 270 270 269 269 268 268 267 267 266 266 265 264 264 264 264 264 264 264 264 264 264 263 263 262 262 261 261 261 261 261 260 260 260 260 260
282 282 281 280 280 279 278 278 277 277 276 276 275 275 274 274 273 273 272 271 271 271 271 271 271 271 271 270 270 271 272 273 273 273 274 274 274 274 274 274 274 274 273 273 272 272 272 271 271 270 269 269 268 268 268 267 267 266 266 265 264 264 264 264 264 264 264 264 264 264 263 263 262 262 261 261 261 261 261 260 260 260 260 260 260
280 280 280 279 278 278 277 277 276 276 275 275 274 273 273 273 272 272 271 271 270 270 270 270 270 270 270 270 269 270 271 271 272 272 272 273 273 274 274 274 273 273 273 272 272 271 271 270 270 269 269 268 268 267 267 266 266 266 265 265 264 264 264 264 264 264 264 264 264 264 263 263 262 261 261 261 261 261 260 260 260 260 260 260 260
278 278 277 277 276 276 276 275 275 274 273 273 273 272 272 271 271 271 270 270 269 269 269 269 269 269 269 269 268 269 269 270 270 270 271 271 272 273 273 273 273 272 272 271 270 270 270 269 269 268 268 267 266 266 266 266 266 265 265 264 264 264 264 264 264 264 264 264 263 263 263 262 261 261 261 261 261 260 260 260 260 260 260 260 260
276 276 275 275 275 274 274 274 273 273 272 272 271 271 270 270 270 269 269 269 269 268 268 268 268 267 268 268 267 267 268 268 269 269 269 270 271 271 272 272 271 271 270 269 269 268 268 267 267 267 266 266 266 265 265 265 265 265 265 264 264 263 264 264 264 264 264 263 263 262 262 261 261 261 261 261 260 260 260 260 259 259 260 259 259
275 274 274 274 273 273 273 273 272 272 271 270 270 270 269 269 269 269 268 268 268 267 267 267 267 266 267 267 266 266 267 267 268 268 268 269 269 270 270 270 269 268 268 267 267 267 266 266 266 265 265 265 266 265 265 265 265 265 264 264 263 263 264 264 264 263 262 262 262 261 261 261 261 261 260 260 260 259 259 259 259 259 259 259 259
273 273 273 272 272 272 271 271 271 270 270 269 269 269 268 268 268 268 267 267 267 267 266 266 266 266 266 266 266 266 266 266 267 267 267 267 268 268 268 268 267 267 266 266 266 265 265 265 265 265 265 265 265 265 265 265 264 264 264 263 263 263 263 263 263 262 262 261 261 261 261 261 261 260 260 260 260 259 259 259 259 259 258 258 258
272 272 271 271 270 270 269 269 269 268 268 268 267 267 267 267 267 267 266 266 266 266 266 265 265 265 265 265 265 265 265 265 265 266 266 266 266 266 266 266 266 266 266 265 265 264 264 264 264 264 264 264 264 264 264 264 263 263 263 263 262 262 262 262 262 262 262 261 261 261 261 260 260 260 260 260 259 259 259 259 258 258 258 257 257
271 270 269 269 268 268 268 268 267 267 267 267 266 266 266 266 266 266 265 265 265 265 265 265 265 265 265 265 265 265 265 265 265 265 265 265 266 266 266 265 265 265 264 264 264 264 264 264 264 264 264 264 264 264 264 263 263 263 263 262 262 262 262 262 262 262 262 261 261 261 260 260 260 260 260 260 259 259 259 259 258 258 257 257 257
269 268 268 267 267 267 267 266 266 266 266 266 266 265 265 265 265 265 265 265 264 264 264 264 264 264 264 265 265 265 265 264 264 264 265 265 265 265 264 264 264 264 264 264 264 264 264 264 264 264 264 264 263 263 263 263 263 262 262 262 262 262 262 262 261 261 261 261 260 260 260 260 260 260 260 259 259 259 259 259 258 258 257 257 257
267 267 266 266 266 266 265 265 265 265 265 265 265 265 264 264 264 264 264 264 264 264 264 264 264 264 264 264 264 264 264 264 264 264 264 264 264 264 264 263 263 263 263 264 264 264 264 263 263 263 263 263 263 263 262 262 262 262 262 262 262 262 262 261 261 261 261 260 260 260 260 260 260 260 259 259 259 259 259 259 259 258 258 257 257
266 265 265 265 265 265 265 265 265 265 264 264 264 264 264 264 264 264 263 263 263 263 264 263 263 263 264 264 264 264 263 263 263 263 263 263 263 263 263 263 263 263 263 263 263 263 263 263 263 263 263 262 262 262 262 262 262 261 261 261 261 261 261 261 261 261 261 260 260 260 260 260 259 259 260 260 260 259 259 259 258 258 258 258 257
Wind_Speed
39 39 40 42 43 43 42 42 43 43 42 41 41 40 40 39 38 37 36 35 34 33 31 30 28 26 24 23 21 20 18 17 16 14 13 11 10 9 8 7 6 5 5 5 4 4 4 4 3 3 2 3 3 4 5 5 6 6 6 7 7 6 8 8 9 20 31 27 23 27 29 30 30 28 29 33 33 32 33 32 32 32 32 32 32
39 40 41 42 42 43 43 43 43 43 42 42 41 41 40 39 38 37 36 35 34 33 32 30 28 27 25 23 21 20 18 17 15 13 12 12 11 9 8 7 7 6 6 5 4 4 4 5 4 4 4 4 5 5 6 6 6 7 7 8 9 9 8 11 11 15 27 32 29 28 29 29 29 29 30 33 34 34 34 34 33 31 31 32 33
40 41 42 42 43 43 43 43 43 43 43 42 41 41 40 39 38 37 36 35 33 32 30 30 29 27 26 24 22 20 18 16 15 13 12 11 10 9 8 8 7 6 5 5 5 5 6 6 6 6 5 5 6 6 6 7 7 8 8 9 10 11 10 10 12 14 22 32 30 27 30 30 28 29 30 32 32 34 35 35 33 32 31 32 33
41 41 42 42 42 43 43 43 43 43 43 43 42 41 40 39 38 37 36 35 33 31 29 28 28 27 26 25 23 21 19 17 16 14 12 11 9 9 9 8 7 5 5 5 6 7 7 7 7 7 6 7 7 7 7 8 8 8 9 10 10 11 11 10 12 14 18 27 30 27 27 29 29 29 29 32 35 35 34 33 33 34 33 31 31
41 41 42 42 42 43 43 44 44 44 44 43 42 41 40 39 39 37 36 34 32 31 29 27 27 26 25 24 23 22 20 18 17 15 14 12 10 9 8 7 6 5 5 6 7 8 8 8 8 8 8 8 7 8 9 8 9 9 9 10 10 10 11 11 12 14 16 23 28 28 25 26 29 29 28 31 36 37 36 35 34 33 31 30 31
41 41 42 42 43 43 44 44 45 45 45 44 42 41 40 39 39 37 36 34 33 31 29 28 26 25 24 23 23 22 21 19 17 16 14 12 10 9 8 6 5 5 6 7 8 9 9 9 9 9 8 9 8 9 10 9 9 9 9 10 11 10 11 12 12 14 16 19 23 26 26 26 28 30 30 31 33 35 37 37 34 29 27 30 33
40 40 41 42 43 44 44 45 45 45 45 44 43 42 41 40 39 37 35 34 33 31 30 28 26 25 24 23 22 21 20 19 18 16 14 12 11 9 8 7 6 6 7 9 9 10 10 9 9 9 9 10 10 10 10 9 9 9 10 10 10 10 11 12 12 13 16 18 20 23 25 26 26 29 32 33 32 29 28 30 32 32 30 30 32
40 40 40 41 42 43 44 44 44 44 44 44 42 42 41 40 38 36 35 34 33 31 30 29 27 26 24 23 22 21 20 20 18 17 15 13 11 10 8 7 7 8 9 10 10 10 10 10 9 10 10 10 11 11 10 9 9 10 10 10 10 10 10 11 13 14 16 18 20 22 24 25 26 29 33 31 28 25 25 27 30 32 33 32 32
39 39 39 40 40 40 40 41 42 42 42 42 42 42 41 40 38 37 35 34 32 32 31 29 28 27 25 23 22 22 21 19 18 16 15 14 12 10 9 8 8 9 10 10 10 10 10 10 10 10 11 11 11 11 9 9 9 10 10 10 10 10 10 11 12 15 17 18 19 21 23 24 25 26 26 24 24 27 29 28 28 30 33 35 36
39 39 39 39 38 36 37 38 39 40 41 42 42 42 41 40 39 38 36 34 33 32 31 30 28 27 26 25 24 23 21 19 18 16 15 15 13 11 9 10 10 10 10 10 11 11 11 11 11 11 11 11 11 10 10 9 9 9 9 9 9 9 9 11 13 16 18 18 18 20 21 21 21 20 21 24 27 27 26 26 28 31 32 32 34
39 39 39 37 35 35 35 36 38 39 41 41 41 41 41 40 39 38 36 35 34 32 31 30 29 28 27 26 25 23 22 20 19 18 17 15 13 12 11 11 11 11 11 11 11 11 11 11 11 11 11 11 11 10 10 10 10 10 9 8 7 7 9 12 15 16 17 18 19 18 17 19 22 22 23 25 25 24 25 25 26 28 27 25 27
39 39 38 36 35 36 37 37 38 39 40 40 40 40 40 40 39 38 37 36 34 33 31 30 30 29 27 27 26 24 22 21 20 20 19 16 14 13 13 13 12 12 12 12 12 11 11 10 11 11 10 11 11 11 10 10 10 9 7 6 6 7 9 11 14 17 18 19 18 16 16 20 23 23 22 22 24 26 27 25 23 24 24 23 24
37 36 36 35 35 36 37 37 37 38 39 39 39 39 40 40 39 38 37 36 34 33 32 31 30 30 29 28 27 25 24 23 22 21 19 17 16 15 14 14 13 13 13 13 12 11 11 11 10 10 10 10 11 11 11 10 9 7 6 6 6 7 9 11 14 15 16 16 17 18 18 19 20 21 23 24 26 27 26 25 24 22 23 24 25
35 35 35 35 35 36 36 37 37 37 37 37 38 39 40 40 39 38 37 36 35 34 33 32 31 31 30 29 27 26 25 25 24 22 20 18 17 16 16 16 15 14 13 13 12 11 11 11 10 10 10 10 10 11 11 10 8 7 7 8 9 8 9 11 12 11 12 14 18 19 19 18 20 25 28 26 23 23 23 24 24 23 24 25 27
32 33 33 34 34 35 35 36 36 36 36 37 39 40 40 40 40 39 38 37 36 35 34 34 33 33 32 30 29 28 27 26 25 23 21 19 18 18 18 16 15 14 14 13 12 11 11 11 11 10 10 10 11 11 11 10 9 9 10 11 11 10 11 11 9 9 12 15 17 18 19 20 22 25 25 21 18 18 19 21 23 23 24 26 27
30 30 32 33 33 35 35 36 36 36 37 38 39 40 41 41 41 40 39 38 36 35 35 36 36 35 34 32 31 31 29 28 27 25 23 21 20 20 19 18 16 16 15 14 13 12 12 12 11 11 11 11 11 11 10 9 9 10 12 13 13 12 13 12 11 13 17 17 16 17 20 22 22 22 21 18 16 16 18 21 21 20 22 24 25
31 31 33 34 35 35 36 36 36 36 37 38 39 41 42 42 42 41 40 39 38 37 38 39 39 37 36 35 35 33 31 30 28 26 24 23 23 23 22 21 19 18 17 16 14 14 13 13 12 13 12 11 11 10 9 7 8 11 14 14 14 14 14 14 17 20 20 17 16 18 21 23 23 22 20 17 14 15 18 20 19 19 20 19 19
34 35 36 36 36 35 35 36 36 37 38 40 41 42 43 43 43 43 42 41 40 41 42 42 41 39 38 38 37 35 33 31 30 29 26 25 25 25 24 23 22 21 19 18 17 16 15 14 13 14 13 12 11 10 7 7 10 13 14 14 15 15 15 17 20 21 18 17 18 21 23 23 21 19 18 16 13 12 14 15 16 18 18 17 17
37 38 37 35 35 36 36 37 38 39 40 42 43 43 43 43 43 43 43 42 43 44 45 44 43 42 40 39 38 37 35 33 32 31 29 27 26 26 26 25 25 24 22 20 19 18 16 15 14 14 14 13 11 10 9 9 12 14 15 15 15 16 18 20 20 19 17 18 21 24 24 21 18 17 16 14 12 11 11 12 14 16 17 18 20
37 35 34 33 35 36 38 39 40 41 42 42 42 42 42 42 42 43 44 44 44 44 44 44 43 43 41 41 40 38 36 34 33 32 30 28 28 28 28 28 26 25 24 22 20 19 18 16 15 15 15 13 11 11 12 12 13 15 16 15 15 17 19 18 16 16 17 20 24 26 24 20 18 16 15 13 12 11 11 11 12 14 15 18 20
31 31 32 33 35 37 39 40 41 41 41 41 40 41 41 41 42 43 44 43 42 41 42 42 42 42 41 41 41 39 37 35 34 32 31 30 29 30 30 29 27 26 25 23 21 21 20 18 16 16 15 13 12 12 13 12 12 15 16 14 14 16 17 15 14 16 20 23 25 25 22 19 18 16 14 14 12 11 12 12 13 14 14 16 19
29 31 32 34 35 37 38 39 39 39 39 39 39 40 40 40 40 40 40 40 39 39 39 39 40 41 41 41 41 40 38 36 34 33 32 31 30 31 32 30 28 27 26 25 24 23 22 18 17 16 15 13 12 13 14 13 13 16 16 13 11 14 16 17 18 20 23 25 24 23 21 19 18 16 15 15 14 13 12 13 14 15 15 15 16
29 31 32 33 35 35 36 37 37 38 38 38 38 38 38 38 37 37 37 37 37 37 38 38 38 39 40 40 41 40 39 37 35 34 33 33 32 32 31 30 29 28 28 27 26 25 22 19 17 16 13 12 12 14 14 14 16 18 15 11 11 15 18 20 21 22 23 23 22 22 21 19 17 17 17 16 16 15 14 14 15 16 17 18 18
27 29 31 32 33 33 34 35 35 36 37 37 37 36 36 36 36 35 36 36 36 37 37 37 37 37 39 40 41 40 40 39 37 36 35 35 35 33 30 28 28 28 29 28 26 25 23 19 17 14 12 12 14 15 15 15 17 18 14 11 14 18 20 21 21 21 21 20 21 21 21 18 17 17 17 17 17 17 15 15 15 17 19 21 22
26 28 30 30 31 31 32 32 33 34 35 36 36 36 36 35 35 35 36 36 36 37 37 36 37 37 38 40 42 42 41 40 39 39 38 37 37 34 31 28 26 26 27 28 27 25 21 18 15 13 13 14 15 16 17 18 18 18 16 15 17 20 20 19 19 19 19 19 20 21 21 19 17 17 17 18 18 17 17 17 17 18 20 22 23
25 26 28 29 29 29 30 30 31 32 33 34 35 36 36 37 37 37 37 37 37 37 37 36 37 37 39 41 42 41 40 41 42 42 40 39 38 36 34 32 28 25 26 27 26 23 19 16 15 15 15 16 17 19 20 20 20 20 19 19 19 20 19 18 18 18 18 19 20 21 21 19 18 18 17 17 18 17 16 18 20 20 21 24 25
24 25 26 26 27 28 29 29 30 31 32 33 34 35 36 37 37 37 37 37 37 37 37 36 37 38 40 42 42 40 40 41 42 43 42 41 40 38 37 35 31 27 27 27 25 22 18 16 16 17 17 18 20 21 21 21 21 21 20 20 20 20 19 18 18 17 18 19 20 20 20 19 19 19 17 17 17 16 14 15 18 20 22 24 26
21 22 23 24 25 26 28 28 30 31 32 33 34 35 36 37 38 39 40 40 40 39 39 39 40 41 42 42 39 37 39 42 44 45 44 44 43 42 40 38 35 32 31 30 28 25 21 20 20 19 19 20 21 21 22 22 21 20 20 20 19 19 18 18 18 18 18 18 19 20 20 19 19 19 18 17 17 15 13 14 16 19 21 23 24
19 19 21 22 24 25 26 27 29 30 31 33 34 36 36 37 38 40 41 41 41 41 41 42 43 44 44 43 40 38 41 44 47 47 45 44 45 44 43 41 39 37 35 31 28 27 26 25 25 25 24 24 23 23 23 22 21 20 20 20 19 19 19 19 19 18 18 17 18 19 19 19 19 18 17 18 17 15 14 14 15 17 20 21 22
18 19 20 21 23 24 25 27 28 29 30 32 33 34 35 35 37 38 38 39 39 40 40 41 41 40 40 42 41 41 42 44 43 40 39 40 42 43 43 42 39 37 34 29 26 27 28 28 28 29 28 28 27 26 24 22 21 20 20 20 20 20 20 20 19 18 17 17 18 18 18 17 18 17 17 18 18 17 15 14 14 16 18 21 23
19 20 21 21 22 23 24 26 27 28 29 30 31 32 32 33 35 37 37 37 37 37 38 39 38 37 38 39 40 39 39 38 37 35 34 34 35 39 41 40 37 35 32 28 26 27 28 28 29 29 28 28 28 26 24 23 22 21 21 21 22 22 21 20 19 17 17 17 17 17 17 16 16 17 17 18 19 19 18 16 14 15 17 19 21
19 19 20 21 22 22 23 24 25 26 27 28 29 30 30 31 32 34 36 36 36 35 35 36 36 36 37 37 36 37 37 35 34 34 33 31 30 32 36 37 35 32 29 28 28 29 28 28 28 28 28 28 28 26 25 24 23 22 22 23 24 24 23 20 17 17 17 17 17 17 17 16 16 16 16 17 18 19 19 19 17 16 17 19 20
18 18 19 19 20 21 22 23 24 25 26 27 28 28 29 29 30 29 27 29 31 32 32 32 32 33 34 33 33 34 35 33 32 31 31 30 29 28 29 31 32 29 26 27 30 30 28 28 28 27 27 28 28 27 26 25 23 23 23 24 25 25 23 20 18 17 18 17 17 17 17 16 16 16 16 17 18 18 19 20 19 18 18 19 21
17 17 17 17 18 19 20 22 23 24 25 25 26 27 27 28 27 24 21 21 24 28 30 31 29 29 30 30 30 29 28 28 28 28 28 28 28 26 24 25 26 26 27 30 31 29 28 29 29 28 28 29 28 27 26 25 24 23 23 24 25 25 23 21 20 19 18 17 17 17 17 16 16 16 16 16 18 18 19 20 20 19 18 19 21
17 18 18 17 17 18 19 20 21 22 23 24 25 25 26 26 25 25 24 23 24 26 28 29 28 27 27 27 27 25 24 23 23 23 25 25 24 22 23 24 24 25 28 30 31 30 29 29 30 29 29 28 27 26 26 25 24 23 23 25 25 24 23 22 22 21 19 18 18 18 17 17 16 16 16 16 18 19 20 20 20 19 19 19 20
17 18 18 18 18 18 18 18 19 20 21 22 23 23 24 24 24 25 25 25 25 27 28 28 26 25 24 25 24 23 22 23 22 21 22 23 22 22 25 27 27 27 29 31 31 31 30 30 29 28 27 27 26 25 25 25 24 23 24 24 24 24 23 22 22 21 20 19 19 19 18 18 17 16 16 17 18 20 20 21 21 20 19 18 18
14 16 17 18 18 18 18 18 18 18 19 19 20 21 22 23 24 24 24 25 26 28 28 27 24 23 24 24 24 22 22 22 21 20 21 21 22 25 29 30 28 28 30 30 30 30 29 28 27 26 26 27 26 26 26 25 25 24 24 24 24 23 23 22 22 21 21 20 20 20 20 19 18 17 17 18 20 21 21 21 20 20 20 18 17
11 13 14 16 17 17 17 18 18 18 18 19 20 20 21 22 22 23 24 25 26 26 27 26 24 24 25 25 23 23 23 22 21 21 22 23 25 28 30 29 29 28 29 29 30 30 30 28 27 26 25 25 25 25 25 25 25 24 24 24 24 23 23 23 22 22 22 22 21 21 21 20 19 18 18 19 20 22 22 21 20 20 20 19 17
9 11 12 14 15 16 16 17 17 18 18 19 19 20 21 21 22 22 23 24 25 25 26 25 25 27 27 24 22 23 24 24 25 25 25 26 28 30 30 29 29 29 28 27 28 29 30 30 30 28 26 25 25 25 25 26 26 25 24 24 23 23 24 24 23 23 23 23 22 21 21 21 20 19 19 20 21 22 22 21 20 18 18 19 20
9 10 11 13 14 15 16 16 17 18 18 19 19 20 21 22 23 23 23 23 24 25 25 26 27 27 26 23 22 23 26 27 28 28 27 27 29 30 31 30 29 29 28 27 27 28 29 30 29 28 27 26 26 26 27 27 26 25 24 23 23 23 24 24 24 24 24 23 22 22 22 22 21 20 20 21 22 21 21 20 18 16 17 20 22
10 11 12 13 14 14 15 16 17 18 18 18 19 20 21 22 22 22 22 23 24 25 25 26 27 26 24 23 23 24 26 28 28 27 28 29 29 30 31 30 28 27 27 27 28 28 28 28 28 27 26 26 26 27 27 26 25 24 23 23 23 23 24 24 24 25 24 23 23 23 23 22 21 21 21 22 21 21 20 19 18 19 20 21 21
11 12 12 13 13 14 15 16 16 16 17 18 19 19 20 21 21 21 22 23 23 24 24 25 26 24 23 23 22 22 25 28 27 27 28 30 30 30 29 27 27 27 27 27 27 27 27 27 27 26 26 27 27 27 26 24 23 22 22 22 23 24 24 24 24 24 24 23 23 23 23 23 22 21 21 21 21 21 20 20 19 20 20 20 20
11 12 12 12 13 14 14 14 15 15 16 17 18 18 18 19 19 20 21 21 22 22 23 24 24 22 21 21 20 20 23 26 27 27 27 28 29 29 29 29 29 29 28 27 26 26 26 26 26 26 26 26 25 24 23 22 21 22 22 22 23 24 24 24 24 24 24 23 23 23 23 23 22 22 21 21 21 21 21 21 21 20 20 20 20
11 11 12 12 12 13 13 13 14 14 15 15 16 16 16 17 18 18 19 20 21 21 22 22 22 21 20 19 19 19 21 23 25 26 27 28 29 30 31 31 30 29 28 27 26 26 26 26 25 24 24 23 22 22 22 21 22 22 22 22 23 24 25 25 25 24 23 22 22 22 22 22 22 22 21 20 20 20 21 21 21 21 21 20 19
9 10 11 11 11 11 12 12 13 13 13 14 15 15 15 16 17 17 18 19 19 20 20 20 20 19 19 19 18 19 21 22 23 25 26 28 29 29 29 28 27 26 25 24 23 23 23 23 22 22 21 21 22 22 22 21 22 22 22 23 24 25 25 24 24 23 22 22 22 22 22 22 22 21 21 20 20 20 22 22 21 21 21 21 20
8 8 9 9 9 10 10 11 11 12 12 13 14 14 14 15 15 16 17 18 18 18 19 19 18 18 19 18 18 20 21 21 22 23 24 24 25 25 24 24 23 22 21 20 19 19 19 19 19 20 20 21 21 22 22 22 22 22 23 24 24 24 24 23 23 23 23 23 22 22 22 22 22 22 21 20 20 21 22 23 22 22 22 21 21
6 6 7 7 8 8 8 9 9 10 11 11 12 12 13 13 14 15 15 16 17 17 17 17 17 17 17 17 17 18 20 20 20 20 21 21 21 20 20 20 19 19 18 17 17 17 17 18 19 19 20 21 21 22 22 22 22 23 23 24 24 24 23 22 23 24 23 22 22 22 22 23 23 22 22 21 22 23 23 23 23 23 23 22 22
4 4 5 6 6 6 7 7 8 9 9 10 10 11 12 12 13 14 14 15 15 16 16 16 16 16 16 15 15 16 17 18 19 19 19 19 19 19 19 19 19 18 17 17 17 17 18 18 19 19 20 21 21 22 22 23 23 23 23 23 23 23 22 21 22 23 22 22 22 22 23 23 24 24 23 23 23 24 24 24 24 23 23 23 22
3 3 3 4 4 5 5 6 6 7 8 8 9 10 11 12 12 13 13 14 14 15 15 15 15 14 14 14 14 14 14 16 17 17 17 17 17 18 19 19 18 18 18 17 17 17 18 18 19 20 21 21 22 23 23 23 23 23 23 22 22 21 21 21 21 22 22 22 22 22 23 24 25 25 25 24 24 24 25 24 24 23 23 22 22
1 1 2 2 2 3 4 5 5 6 7 8 9 10 10 11 12 12 13 13 13 13 14 14 14 14 14 13 13 13 13 13 14 14 15 15 15 16 17 17 17 17 17 17 17 18 18 19 20 21 21 22 23 23 24 24 23 23 22 21 21 21 21 21 21 21 21 22 23 23 24 25 25 25 25 25 24 24 24 24 23 22 22 21 21
1 0 1 1 2 3 4 4 5 6 7 8 8 9 10 11 11 11 12 12 13 13 13 13 13 13 13 13 12 12 12 12 12 13 13 14 14 14 15 15 16 16 16 17 17 18 19 20 21 21 22 23 23 23 23 23 22 21 21 20 20 21 21 21 21 21 21 22 23 23 24 24 25 25 25 23 22 22 22 21 20 20 20 20 20
Wind_Direction
188 189 188 187 185 184 184 183 181 181 179 178 177 176 176 175 173 172 170 169 168 166 164 162 160 157 156 156 156 156 158 158 157 160 162 165 168 170 175 179 188 195 192 193 194 201 217 220 225 229 233 263 280 291 300 309 315 316 316 318 320 321 317 311 286 291 303 311 313 316 323 327 330 334 333 333 335 337 336 336 337 337 335 335 334
189 190 189 188 188 187 186 185 184 183 182 181 180 179 179 178 176 176 174 172 171 169 167 164 161 161 160 160 160 161 161 160 161 166 171 175 176 175 178 186 196 202 199 203 207 214 231 238 242 247 252 261 271 283 296 303 310 315 318 320 323 326 323 316 304 294 302 310 315 320 326 330 330 332 334 334 334 335 334 333 333 333 332 332 329
191 191 191 191 190 189 188 187 186 185 184 183 183 183 182 181 180 180 177 175 174 173 170 166 165 165 164 163 163 163 163 163 165 172 179 181 179 179 183 189 198 205 209 219 227 231 238 244 247 251 255 263 273 282 294 303 307 311 316 320 323 325 327 320 309 297 299 307 315 321 326 329 329 330 333 333 332 332 330 330 331 329 328 328 325
192 192 192 192 192 191 190 189 188 187 186 186 186 186 185 183 183 183 180 177 176 175 174 171 169 168 166 165 166 166 166 168 171 175 181 184 182 182 185 190 197 207 219 231 238 241 242 245 249 254 259 263 272 283 291 297 301 306 314 322 325 324 325 321 312 303 299 302 309 318 324 326 326 328 332 332 330 330 327 326 327 326 324 324 322
194 193 193 192 192 192 191 191 190 189 188 188 188 188 187 186 186 185 183 179 177 177 176 175 174 172 170 169 169 169 169 171 173 175 180 184 183 184 188 192 200 211 229 241 244 245 246 250 254 257 261 264 271 282 286 287 295 306 317 323 326 324 320 319 316 311 302 299 306 315 321 323 324 326 330 331 328 328 327 325 324 324 323 323 321
194 194 193 192 193 193 193 192 191 190 190 190 190 190 189 189 188 187 185 182 180 179 178 177 177 176 175 174 173 172 171 173 175 175 178 181 183 188 192 198 209 222 237 245 248 249 250 253 258 260 263 268 272 276 280 286 296 309 320 323 324 320 314 316 318 314 307 300 304 312 317 322 324 323 327 330 326 323 323 324 325 325 324 323 322
194 193 193 193 194 194 194 193 192 191 192 192 192 191 191 191 190 189 188 185 182 181 179 179 180 180 180 178 177 176 174 175 177 177 177 182 187 191 193 199 214 227 238 245 246 249 253 254 258 263 265 270 273 273 279 289 301 312 319 319 316 312 311 315 316 311 307 304 305 309 313 318 321 321 325 327 324 321 323 325 325 323 322 323 322
194 194 194 194 195 196 195 194 193 193 193 193 193 193 193 193 192 190 190 189 186 184 182 181 182 183 183 182 180 180 180 180 180 178 178 183 189 191 193 200 213 224 234 242 244 247 252 254 256 262 264 266 270 273 282 296 306 312 311 307 305 306 309 312 312 311 308 304 303 307 310 313 317 319 322 325 326 327 328 326 321 320 322 322 320
193 193 195 196 198 197 196 195 194 193 194 194 194 194 194 194 193 193 192 191 189 187 186 185 185 185 185 185 185 186 186 185 184 182 181 184 187 187 193 203 214 223 230 237 243 245 248 251 253 255 258 261 266 274 284 292 298 300 299 297 299 302 307 308 309 310 306 300 300 306 307 308 313 316 320 326 327 324 324 324 320 320 321 318 314
192 194 196 198 199 198 197 195 195 194 195 196 196 196 195 195 195 195 194 193 192 191 189 187 188 188 187 188 190 189 188 188 188 187 187 188 187 186 195 207 214 221 227 232 238 242 244 248 250 249 254 260 268 277 283 282 281 286 290 293 296 301 304 305 305 305 301 297 300 304 302 303 313 320 321 323 323 322 324 326 321 320 321 317 315
193 195 197 197 198 198 197 197 196 196 196 197 197 197 196 196 196 196 196 195 195 193 191 190 191 192 191 191 192 191 190 191 192 192 192 190 187 189 200 211 215 219 225 229 234 239 241 244 247 249 255 264 273 278 282 282 283 283 284 288 293 295 297 300 303 303 299 296 299 304 305 309 317 323 321 321 323 324 324 323 320 320 322 320 317
193 195 196 196 198 198 198 198 198 198 198 198 198 197 197 197 197 198 197 197 197 195 194 194 194 195 195 195 195 194 193 195 197 198 198 194 191 197 207 214 218 220 224 228 232 237 241 243 245 250 257 267 276 282 284 286 287 286 291 305 302 287 284 292 299 301 301 302 306 313 317 315 314 317 321 325 325 322 320 319 319 319 317 317 313
193 194 195 196 198 198 198 198 198 199 199 198 198 198 198 199 199 200 200 199 199 197 196 197 198 198 198 198 198 198 197 199 202 202 201 198 198 205 214 219 223 223 224 228 232 237 242 245 247 255 263 271 278 284 286 287 286 286 305 331 326 302 291 292 294 296 300 307 313 317 316 313 312 313 316 321 321 318 316 316 317 317 315 314 312
194 195 195 196 198 198 197 197 198 199 199 199 199 199 200 201 201 202 202 201 200 199 199 200 202 202 202 201 201 201 201 204 207 206 205 205 207 212 217 221 225 229 231 234 237 239 244 248 251 257 265 272 278 281 281 279 280 295 322 332 323 311 305 301 295 290 296 306 311 310 306 305 306 306 309 314 315 312 312 313 315 317 315 311 310
195 196 195 196 197 198 197 197 197 199 200 200 200 200 201 202 203 203 204 204 203 201 201 203 205 205 205 204 204 204 205 207 210 210 209 210 215 220 222 224 229 237 241 244 246 247 249 253 257 259 262 267 271 273 274 275 288 313 324 317 308 306 307 304 293 287 298 305 304 300 297 299 303 305 308 312 312 309 308 307 309 314 315 314 316
196 196 196 197 198 199 198 198 198 199 200 201 202 202 202 203 204 205 206 206 205 204 205 208 209 208 207 207 207 207 208 210 212 213 213 214 217 224 229 232 236 242 246 249 252 254 255 258 261 261 261 261 261 263 268 277 295 306 304 300 299 299 293 284 279 288 299 301 296 291 292 297 303 306 308 310 313 313 308 306 313 322 324 321 321
197 198 200 200 200 200 200 199 199 199 201 202 203 204 204 205 206 206 207 206 205 207 210 211 211 210 209 209 210 209 209 211 213 215 216 217 218 223 230 235 239 243 248 251 254 256 258 258 258 259 261 259 256 258 262 271 282 286 287 289 290 286 282 282 289 297 301 299 293 292 295 300 304 306 306 307 314 317 312 314 325 332 326 320 318
199 200 202 202 201 201 201 201 201 201 202 205 206 206 207 207 208 208 208 208 210 212 214 214 214 213 212 212 212 211 211 213 215 217 218 220 221 225 230 235 239 244 248 251 254 257 256 254 255 258 259 256 254 257 261 267 273 276 279 282 281 281 287 295 299 301 300 297 296 297 302 306 309 309 307 307 314 319 318 321 327 326 321 316 312
202 202 203 202 202 204 204 205 205 205 206 208 208 208 208 208 210 211 211 212 215 216 215 215 216 215 215 216 217 216 215 215 217 219 220 221 224 228 232 235 239 244 248 251 254 256 253 251 251 254 257 258 259 262 262 262 267 270 272 275 279 285 294 299 300 300 298 298 301 304 309 312 311 308 308 310 315 322 326 329 328 323 319 314 312
204 203 202 203 204 206 207 208 209 209 210 210 210 210 211 211 212 212 213 214 217 217 216 217 218 218 218 219 220 220 219 218 219 221 222 223 226 230 233 235 239 244 247 250 253 254 253 251 248 249 254 256 255 256 254 252 258 264 265 268 279 292 297 296 294 293 295 300 305 307 310 312 310 308 309 312 317 325 333 339 337 329 320 312 311
202 202 204 205 207 209 210 211 211 212 213 213 212 212 213 213 213 214 214 215 216 217 218 219 220 221 222 223 224 223 222 221 221 222 224 225 227 231 235 238 240 244 247 249 252 254 254 251 247 247 250 248 244 246 248 247 251 257 258 264 282 293 292 289 287 290 295 301 304 305 307 309 307 308 310 313 319 328 334 341 343 338 327 315 310
204 205 206 208 209 210 211 212 212 213 213 213 213 214 214 215 216 216 216 217 217 218 220 221 223 225 225 227 228 227 225 224 223 223 225 227 228 232 237 241 242 244 246 248 251 254 255 251 247 246 248 243 239 242 244 244 245 249 254 267 283 283 279 280 285 289 294 298 300 301 305 307 307 308 312 315 320 326 332 340 346 345 337 326 315
207 207 207 209 210 211 212 213 213 213 215 215 216 216 217 217 219 219 219 220 220 220 222 223 225 227 229 230 231 230 228 227 225 224 226 228 229 231 235 240 244 245 246 249 252 256 256 251 245 245 244 236 234 240 243 245 244 245 252 267 273 270 273 278 282 286 292 296 297 298 302 306 307 309 313 316 318 321 328 335 340 344 342 337 331
207 208 209 209 211 212 213 215 215 216 217 218 218 218 218 219 219 221 222 222 222 223 224 225 226 229 231 232 233 233 231 229 229 228 227 229 230 230 231 236 242 246 248 251 253 255 256 253 250 247 238 230 235 242 243 240 238 241 250 262 266 271 277 281 282 287 291 293 293 296 300 304 306 308 311 313 314 315 318 324 332 341 341 338 338
206 208 209 211 212 214 215 216 218 219 219 219 219 218 219 219 220 221 222 222 224 225 226 227 228 230 233 235 236 235 233 231 231 231 230 230 231 230 230 232 235 240 247 252 254 254 257 258 254 246 236 234 237 241 241 239 238 244 254 263 271 280 285 284 283 285 287 289 292 294 298 301 304 306 306 307 307 309 312 316 325 336 339 337 337
206 207 210 212 214 215 216 217 218 219 220 221 222 222 222 222 221 222 222 223 225 227 227 229 230 232 234 237 238 238 236 234 233 233 231 231 231 231 232 233 231 231 240 250 256 259 259 252 242 236 236 238 239 240 242 243 244 251 260 269 280 287 287 281 280 282 285 289 291 292 295 299 302 303 303 301 302 305 311 316 323 332 338 338 336
205 207 210 213 214 215 217 217 217 218 220 221 222 223 224 225 224 223 223 223 224 226 228 229 230 232 235 238 240 240 239 238 236 234 231 231 233 233 233 233 231 227 230 237 244 250 248 234 227 231 236 237 238 240 242 244 248 255 263 272 283 288 284 278 278 280 283 286 287 289 293 297 298 300 301 298 298 304 311 319 325 331 337 339 336
206 209 211 213 214 216 217 218 218 218 220 221 222 223 224 225 225 227 229 229 227 227 228 230 232 234 236 238 239 240 241 240 239 237 235 234 235 235 233 232 230 228 227 228 230 234 234 227 224 228 232 234 236 238 242 246 251 258 264 272 282 286 281 276 277 280 282 283 284 286 290 293 294 297 299 297 300 307 314 321 327 330 335 339 336
206 209 211 213 215 216 217 219 220 220 221 223 225 226 228 229 230 233 236 237 236 236 235 236 239 240 240 240 239 238 241 245 246 245 243 240 238 237 236 235 233 231 230 229 228 228 227 227 228 229 231 235 237 239 244 249 255 260 264 271 280 283 278 273 274 276 276 276 278 281 284 287 291 295 297 298 302 308 315 322 327 328 333 336 334
202 207 210 212 215 216 217 219 221 222 224 225 226 228 231 233 236 238 241 241 242 242 242 244 247 247 246 247 246 244 247 253 255 253 250 247 243 241 240 239 238 236 233 229 228 229 227 228 230 232 232 234 237 240 245 250 256 261 264 270 278 281 276 271 271 271 270 270 273 277 280 284 290 295 298 300 303 308 313 319 323 324 328 331 330
202 207 210 214 216 217 218 220 221 223 225 227 228 229 231 233 236 239 241 243 244 244 244 245 248 249 250 253 253 252 253 255 257 258 257 254 250 245 242 240 238 237 234 227 224 227 227 227 229 231 231 231 234 239 246 251 255 261 265 270 278 279 274 269 268 266 266 267 270 274 279 283 288 293 297 300 303 307 310 313 317 320 322 324 324
209 212 214 217 218 219 220 222 223 223 225 227 229 231 232 235 238 241 241 242 244 247 247 247 247 248 251 255 257 257 257 255 255 257 258 256 253 249 245 241 237 235 232 225 221 224 225 224 226 228 227 229 235 241 247 251 255 259 262 268 275 278 274 270 266 263 262 265 269 272 277 281 285 289 293 297 301 304 306 309 313 317 318 319 319
220 222 222 222 222 222 224 225 226 228 229 229 230 232 232 235 240 244 245 244 245 248 249 250 250 250 251 253 256 259 261 260 257 256 255 253 251 247 241 237 233 228 221 216 218 222 222 223 225 227 228 232 239 244 248 250 253 255 258 265 274 277 274 270 265 262 262 266 269 272 275 280 284 286 288 293 297 300 303 305 309 312 313 314 315
230 233 235 236 235 234 234 234 234 235 236 235 236 237 238 239 242 247 251 250 248 249 249 249 250 250 251 252 252 254 258 260 258 254 251 247 244 237 228 224 223 219 214 213 216 219 221 223 226 229 232 236 240 244 247 249 248 251 257 267 273 274 270 266 264 264 265 267 268 271 274 277 281 284 286 290 295 297 299 301 304 307 308 309 312
239 240 242 244 246 246 246 245 244 244 243 243 243 244 246 247 247 250 252 253 253 254 255 254 252 250 250 251 250 248 248 249 250 250 245 238 230 221 213 212 212 212 213 216 219 221 224 227 229 231 234 237 239 243 246 246 246 251 261 269 273 270 266 263 264 265 266 267 268 270 273 275 277 281 285 289 291 293 296 300 301 302 303 305 307
244 243 244 246 249 252 254 254 253 252 251 251 252 252 252 253 253 254 255 256 256 259 261 262 261 257 251 248 247 245 242 240 240 239 236 228 218 208 208 211 213 213 214 218 221 222 225 229 232 234 237 240 243 247 247 245 246 255 265 271 272 269 263 261 263 264 265 267 268 271 274 276 278 282 284 285 287 289 292 296 299 300 301 301 301
247 247 248 250 252 254 257 259 260 260 259 258 258 257 256 256 255 255 256 256 256 259 260 262 262 260 253 247 241 238 237 237 235 233 229 224 216 212 213 216 217 217 217 219 222 224 227 230 233 237 240 244 247 247 245 245 250 260 268 272 271 266 262 261 262 263 264 266 267 271 274 276 279 283 284 284 285 287 290 293 297 299 299 298 297
249 252 253 255 257 258 260 262 262 261 261 259 258 257 256 255 254 254 254 255 256 258 260 260 258 255 254 250 243 235 231 231 230 229 226 220 215 216 219 222 222 222 221 222 224 227 231 235 239 242 244 246 246 244 244 248 256 264 270 271 268 263 261 261 261 262 263 266 268 270 275 277 279 281 283 283 284 287 289 292 295 297 299 299 298
248 253 255 257 258 259 259 259 258 257 256 255 255 254 253 253 253 252 253 254 255 256 257 258 256 253 253 253 245 233 226 224 224 223 220 217 216 218 221 224 225 224 223 224 225 229 235 240 244 247 248 248 248 247 250 256 261 266 270 269 264 260 258 260 261 262 264 268 270 271 274 277 279 280 281 281 282 284 287 290 293 295 294 295 295
252 251 252 253 255 256 256 255 254 254 253 253 253 253 252 252 252 253 253 254 254 255 256 255 256 256 255 252 243 233 226 224 224 223 220 218 217 219 221 224 224 224 225 228 231 235 239 242 245 248 250 252 252 252 255 259 263 266 267 264 259 258 259 260 262 264 265 267 270 272 273 275 278 279 279 279 281 282 284 286 286 285 283 285 290
253 250 249 251 252 254 254 253 253 254 255 255 254 253 253 254 255 255 255 254 254 256 257 257 259 260 258 253 245 237 232 231 230 227 225 223 221 221 222 222 223 225 227 231 235 238 242 245 247 249 251 252 253 254 256 260 263 264 262 259 258 259 260 261 262 265 266 267 269 271 272 275 278 279 278 279 280 280 280 279 278 279 282 285 289
256 254 254 255 254 254 256 256 258 259 258 257 256 255 256 257 257 255 255 255 256 257 258 260 262 262 259 254 247 239 235 235 234 231 229 227 226 226 226 226 227 231 234 237 239 242 245 248 249 250 252 253 254 255 257 259 262 261 260 260 261 261 262 263 265 266 267 268 269 270 273 276 278 278 277 278 279 278 278 278 279 282 286 288 289
256 257 258 258 257 258 260 262 263 262 259 258 259 260 259 259 259 257 257 257 257 257 259 261 263 262 260 255 247 238 235 236 236 234 233 231 230 232 234 235 238 241 244 246 248 249 250 252 252 254 256 256 256 257 258 260 261 261 260 261 263 263 264 265 265 266 267 269 270 272 274 275 276 276 275 276 277 277 277 278 281 284 286 287 289
254 256 257 257 258 260 262 263 263 263 262 262 261 261 260 259 258 257 257 257 257 257 258 260 261 261 260 256 246 236 233 235 235 235 236 235 234 236 238 240 244 247 250 251 252 251 252 254 255 256 256 256 256 258 260 261 261 261 260 261 262 263 264 265 266 268 271 272 271 271 272 273 273 273 273 274 275 276 277 279 281 284 285 285 286
257 258 259 261 263 263 264 264 263 263 262 260 259 259 258 257 256 256 255 255 256 256 257 258 258 258 257 255 245 236 233 234 235 236 237 237 237 238 240 243 247 250 252 252 252 252 253 255 255 255 255 256 257 259 261 261 261 261 261 262 263 263 264 267 269 271 271 270 269 270 270 270 271 271 272 273 273 274 276 279 280 281 282 282 283
262 262 263 265 266 266 266 266 264 262 261 260 260 260 258 257 257 257 256 256 256 256 257 257 257 255 256 254 248 240 235 233 234 236 238 239 239 241 244 246 249 251 252 253 253 253 253 254 255 256 256 258 259 261 262 262 262 262 263 264 265 266 267 269 270 270 269 268 269 269 268 268 269 269 269 270 272 273 274 277 278 278 279 280 281
265 265 265 265 266 265 264 262 261 261 260 260 261 262 261 261 261 260 258 259 258 258 258 258 257 256 256 254 249 243 237 235 235 235 237 241 244 246 248 250 252 254 256 256 255 255 255 255 256 258 258 259 261 263 264 264 265 265 265 266 266 268 269 268 267 268 268 267 266 265 264 265 266 266 267 269 270 271 273 275 276 277 278 279 280
269 268 268 267 264 264 265 263 262 262 263 263 264 265 265 264 264 263 262 262 261 260 260 260 258 257 256 254 252 248 242 239 239 239 240 244 248 251 253 255 257 258 260 259 258 257 258 258 259 261 262 263 264 266 267 267 267 265 266 266 267 268 269 267 266 266 265 264 262 262 261 262 264 265 267 268 269 270 273 275 275 276 277 277 278
273 270 271 274 272 271 272 270 269 269 270 269 269 268 268 267 267 266 265 264 263 263 263 262 261 259 257 255 254 251 247 244 245 247 247 249 251 252 255 258 259 259 260 259 258 258 259 260 262 263 264 265 267 267 267 267 267 266 266 267 267 267 266 264 262 262 261 260 260 259 260 262 264 266 267 268 270 271 272 273 274 276 276 276 277
255 261 269 277 280 279 276 274 273 274 273 272 271 271 271 270 269 268 266 264 263 262 263 263 262 262 261 260 257 255 254 253 253 253 253 253 252 251 253 256 257 258 258 258 258 259 260 261 263 265 266 267 267 268 268 268 269 269 269 268 267 266 264 261 259 258 258 258 259 260 261 263 265 266 267 268 269 270 271 272 273 275 274 274 276
125 138 274 278 281 281 280 279 279 279 277 277 276 275 272 271 271 270 268 266 264 263 263 265 265 265 265 265 264 263 262 260 258 256 255 254 252 252 252 253 254 255 257 258 259 261 264 266 267 268 269 269 269 269 270 270 271 271 270 269 267 265 263 261 259 258 259 260 262 263 263 264 265 267 268 269 269 270 271 271 271 272 273 274 276